TimeEDT,TemperatureF,Dew PointF,Humidity,Sea Level PressureIn,VisibilityMPH,Wind Direction,Wind SpeedMPH,Gust SpeedMPH,PrecipitationIn,Events,Conditions,WindDirDegrees,DateUTC
12:56 AM,64.0,62.1,93,29.64,10.0,WSW,3.5,-,N/A,,Clear,240,2013-06-28 04:56:00
1:56 AM,64.0,63.0,96,29.63,10.0,WSW,3.5,-,N/A,,Clear,250,2013-06-28 05:56:00
2:49 AM,64.4,62.6,94,29.66,10.0,NNE,5.8,-,N/A,,Scattered Clouds,30,2013-06-28 06:49:00
2:56 AM,64.9,63.0,93,29.64,10.0,NNE,5.8,-,N/A,,Mostly Cloudy,20,2013-06-28 06:56:00
3:10 AM,64.4,64.4,100,29.65,10.0,NNE,3.5,-,N/A,,Overcast,30,2013-06-28 07:10:00
3:56 AM,66.0,64.0,93,29.64,10.0,Calm,Calm,-,N/A,,Overcast,0,2013-06-28 07:56:00
4:53 AM,66.2,64.4,94,29.64,4.0,Variable,3.5,-,N/A,,Overcast,0,2013-06-28 08:53:00
4:56 AM,66.9,64.9,93,29.62,4.0,Variable,3.5,-,N/A,,Overcast,0,2013-06-28 08:56:00
5:06 AM,66.2,64.4,94,29.64,1.8,NNW,3.5,-,N/A,,Overcast,330,2013-06-28 09:06:00
5:31 AM,66.2,64.4,94,29.64,2.5,North,3.5,-,N/A,,Overcast,350,2013-06-28 09:31:00
5:56 AM,66.9,64.9,93,29.62,3.0,North,3.5,-,N/A,,Overcast,350,2013-06-28 09:56:00
6:45 AM,66.2,66.2,100,29.64,4.0,WNW,3.5,-,N/A,,Overcast,290,2013-06-28 10:45:00
6:56 AM,66.9,66.0,97,29.62,5.0,Calm,Calm,-,N/A,,Overcast,0,2013-06-28 10:56:00
7:56 AM,68.0,66.0,93,29.62,5.0,WNW,3.5,-,N/A,,Mostly Cloudy,300,2013-06-28 11:56:00
8:32 AM,69.8,66.2,88,29.63,9.0,North,6.9,-,N/A,,Mostly Cloudy,350,2013-06-28 12:32:00
8:36 AM,69.8,64.4,83,29.63,10.0,North,4.6,-,N/A,,Scattered Clouds,360,2013-06-28 12:36:00
8:56 AM,71.1,64.9,81,29.61,10.0,North,4.6,-,N/A,,Partly Cloudy,360,2013-06-28 12:56:00
9:39 AM,73.4,64.4,73,29.62,10.0,WNW,5.8,-,N/A,,Mostly Cloudy,290,2013-06-28 13:39:00
9:56 AM,71.1,64.0,78,29.61,10.0,NW,3.5,-,N/A,,Mostly Cloudy,320,2013-06-28 13:56:00
10:08 AM,73.4,64.4,73,29.62,10.0,Variable,4.6,-,N/A,,Mostly Cloudy,0,2013-06-28 14:08:00
10:56 AM,73.9,64.0,71,29.60,10.0,WNW,5.8,-,N/A,,Scattered Clouds,300,2013-06-28 14:56:00
11:56 AM,77.0,63.0,62,29.59,10.0,WNW,8.1,-,N/A,,Partly Cloudy,300,2013-06-28 15:56:00
12:56 PM,77.0,63.0,62,29.58,10.0,WNW,9.2,17.3,N/A,,Partly Cloudy,290,2013-06-28 16:56:00
1:56 PM,78.1,62.1,58,29.57,10.0,WNW,9.2,20.7,N/A,,Scattered Clouds,300,2013-06-28 17:56:00
2:56 PM,79.0,64.0,60,29.55,10.0,Variable,6.9,-,N/A,,Partly Cloudy,0,2013-06-28 18:56:00
3:56 PM,81.0,64.0,56,29.52,10.0,Variable,6.9,-,N/A,,Scattered Clouds,0,2013-06-28 19:56:00
4:52 PM,64.4,60.8,88,29.57,2.0,Calm,Calm,-,0.13,Rain,Rain,0,2013-06-28 20:52:00
4:56 PM,64.9,61.0,87,29.56,5.0,Calm,Calm,-,0.14,Rain,Light Rain,0,2013-06-28 20:56:00
5:56 PM,66.0,63.0,90,29.57,10.0,Calm,Calm,-,0.04,,Overcast,0,2013-06-28 21:56:00
6:56 PM,64.0,62.1,93,29.61,2.5,NNE,9.2,-,0.10,Rain,Rain,20,2013-06-28 22:56:00
7:11 PM,60.8,59.0,94,29.61,1.0,NNE,11.5,24.2,0.27,Rain,Heavy Rain,30,2013-06-28 23:11:00
7:17 PM,62.6,60.8,94,29.61,3.0,North,5.8,16.1,0.28,Rain,Light Rain,10,2013-06-28 23:17:00
7:56 PM,63.0,61.0,93,29.59,10.0,Variable,3.5,-,0.29,,Overcast,0,2013-06-28 23:56:00
8:56 PM,63.0,61.0,93,29.59,10.0,Calm,Calm,-,0.01,,Scattered Clouds,0,2013-06-29 00:56:00
9:56 PM,62.1,61.0,96,29.59,10.0,Calm,Calm,-,N/A,,Scattered Clouds,0,2013-06-29 01:56:00
10:56 PM,61.0,60.1,97,29.59,10.0,Calm,Calm,-,N/A,,Mostly Cloudy,0,2013-06-29 02:56:00
11:53 PM,60.8,60.8,100,29.59,1.5,Calm,Calm,-,N/A,,Mostly Cloudy,0,2013-06-29 03:53:00
11:56 PM,61.0,59.0,93,29.58,1.2,Calm,Calm,-,N/A,,Mostly Cloudy,0,2013-06-29 03:56:00